DEJRH ZZZZ-EDHL

Flight info

Callsign DEJRH
Flight time N/A
Altitude
Route
Aircraft

Departure

Time N/A
Airport ZZZZ

Arrival

Time 2026-05-04 19:39
Airport Lübeck Blankensee Airport (EDHL)
Time Latitude Longitude Altitude Speed Heading
2026-05-04 19:31 54.00011 10.79754 1455 ft 110 kts 182°
2026-05-04 19:31 53.99225 10.79674 1416 ft 113 kts 187°
2026-05-04 19:32 53.98450 10.79571 1451 ft 113 kts 188°
2026-05-04 19:32 53.97684 10.79412 1528 ft 107 kts 190°
2026-05-04 19:32 53.96938 10.79243 1526 ft 109 kts 191°
2026-05-04 19:32 53.96196 10.79085 1558 ft 108 kts 189°
2026-05-04 19:33 53.95454 10.78929 1623 ft 108 kts 190°
2026-05-04 19:33 53.94681 10.78688 1557 ft 115 kts 194°
2026-05-04 19:33 53.93895 10.78383 1513 ft 119 kts 197°
2026-05-04 19:33 53.93080 10.78005 1479 ft 122 kts 198°
2026-05-04 19:34 53.92269 10.77603 1490 ft 121 kts 198°
2026-05-04 19:34 53.91457 10.77270 1477 ft 122 kts 195°
2026-05-04 19:34 53.90627 10.76970 1472 ft 121 kts 194°
2026-05-04 19:34 53.89820 10.76638 1419 ft 121 kts 199°
2026-05-04 19:35 53.89018 10.76252 1399 ft 117 kts 198°
2026-05-04 19:35 53.88223 10.75877 1288 ft 119 kts 196°
2026-05-04 19:35 53.87432 10.75668 1260 ft 116 kts 182°
2026-05-04 19:35 53.86619 10.75725 1185 ft 115 kts 181°
2026-05-04 19:36 53.85824 10.75713 1141 ft 107 kts 183°
2026-05-04 19:36 53.85131 10.75677 1102 ft 93 kts 183°
2026-05-04 19:36 53.84493 10.75620 1021 ft 92 kts 185°
2026-05-04 19:36 53.83845 10.75674 947 ft 93 kts 171°
2026-05-04 19:37 53.83204 10.75817 861 ft 92 kts 173°
2026-05-04 19:37 53.82586 10.75933 771 ft 84 kts 176°
2026-05-04 19:37 53.82009 10.75955 596 ft 77 kts 186°
2026-05-04 19:37 53.81526 10.75734 470 ft 70 kts 208°
2026-05-04 19:38 53.81172 10.75199 361 ft 69 kts 241°
2026-05-04 19:38 53.81010 10.74435 263 ft 69 kts 255°
2026-05-04 19:38 53.80864 10.73662 161 ft 68 kts 255°
2026-05-04 19:38 53.80721 10.72913 61 ft 63 kts 255°
2026-05-04 19:39 53.80616 10.72364 54 ft 37 kts 252°
2026-05-04 19:39 53.80565 10.72079 55 ft 16 kts 263°
2026-05-04 19:39 53.80584 10.71934 55 ft 12 kts 294°
2026-05-04 19:39 53.80611 10.71817 56 ft 6 kts 285°
2026-05-04 19:40 53.80622 10.71773 56 ft 3 kts 296°
2026-05-04 19:40 53.80633 10.71732 56 ft 4 kts 294°
2026-05-04 19:40 53.80642 10.71698 56 ft 4 kts 291°
2026-05-04 19:40 53.80657 10.71626 56 ft 8 kts 285°
2026-05-04 19:41 53.80644 10.71470 56 ft 19 kts 254°
2026-05-04 19:41 53.80603 10.71254 56 ft 21 kts 252°
2026-05-04 19:41 53.80555 10.71003 56 ft 22 kts 252°
2026-05-04 19:41 53.80512 10.70779 56 ft 18 kts 251°
2026-05-04 19:42 53.80475 10.70595 56 ft 15 kts 252°
2026-05-04 19:42 53.80457 10.70441 56 ft 12 kts 300°
2026-05-04 19:42 53.80516 10.70358 56 ft 10 kts 325°
2026-05-04 19:42 53.80575 10.70347 56 ft 9 kts 44°
2026-05-04 19:43 53.80599 10.70430 56 ft 7 kts 99°
2026-05-04 19:43 53.80583 10.70446 56 ft 6 kts 183°
2026-05-04 19:43 53.80567 10.70420 56 ft 0 kts 32°